SCP
0 0 0 0 0 0 0 0 0 0 0 0 0 0 0 0 0 0 0 0 0 0 0 0 0 0 0 0 0 0 0 0 0 0 0 0 0 0 0 0 0 0 0 0 -0
0 0 0 0 0 0 0 0 0 0 0 0 0 0 0 0 0 0 0 0 0 0 0 0 0 0 0 0 0 0 0 0 0 0 0 0 0 0 0 0 0 0 0 0 0
0 0 0 0 0 0 0 0 0 0 0 0 0 0 0 0 0 0 0 0 0 0 0 0 0 0 0 0 0 0 0 0 0 0 0 0 0 0 0 0 0 0 0 0 0
0 0 0 0 0 0 0 0 0 0 0 0 0 0 0 0 0 0 -0 0 0 0 0 0 0 0 0 0 0 0 0 0 0 0 0 0 0 0 0 0 0 0 0 0 0
0 0 0 0 0 0 0 0 0 0 0 0 0 0 0 0 0 0 0 0 0 0 0 0 0 0 0 0 0 0 0 0 0 0 0 0 0 0 0 0 0 0 0 0 0
0 0 0 0 0 0 0 0 0 0 0 0 0 0 0 0 0 0 0 0 0 0 0 0 0 0 0 0 0 0 0 0 0 0 0 0 0 0 0 0 0 0 0 0 0
0 0 0 0 0 0 0 0 0 0 0 0 0 0 0 0 0 0 0 0 0 0 0 0 0 0 0 0 0 0 0 0 0 0 0 0 0 0 0 0 0 0 0 0 0
0 0 0 0 0 0 0 0 0 0 0 0 0 0 0 0 0 0 0 0 0 0 0 0 -0 0 0 0 0 0 0 0 0 0 0 0 0 0 0 0 0 0 0 0 0
0 0 0 0 0 0 0 0 0 0 0 0 0 0 0 0 0 0 0 0 0 0 0 0 0 0 0 0 0 0 0 0 0 0 0 0 0 0 0 0 0 0 0 0 0
0 0 0 0 0 0 0 0 0 0 0 0 0 0 0 0 0 0 0 0 0 0 0 0 0 -0 0 0 0 0 0 0 0 0 0 0 0 0 0 0 0 0 0 0 0
0 0 0 0 0 0 0 0 0 0 0 0 0 0 0 0 0 0 0 0 0 0 0 0 0 0 0 0 0 0 0 0 0 0 0 0 0 0 0 0 0 0 0 0 0
0 0 0 0 0 0 0 0 0 0 0 0 0 0 0 0 0 0 0 0 0 0 0 0 0 0 0 0 0 0 0 0 0 0 0 0 0 0 0 0 0 0 0 0 0
0 0 0 0 0 0 0 0 0 0 0 0 0 0 0 0 0 0 0 0 0 0 0 0 -0 0 0 0 0 0 0 0 0 0 0 0 0 0 0 0 0 0 0 0 0
0 0 0 0 0 0 0 0 0 0 0 0 0 0 0 0 0 0 0 0 0 0 0 0 0 0 0 0 0 0 0 0 0 0 0 0 0 0 0 0 0 0 0 0 0
0 0 0 0 0 0 0 0 0 0 0 0 0 0 0 0 0 0 0 0 0 0 0 0 0 0 0 0 0 0 0 0 0 0 0 0 0 -0 0 0 0 0 0 0 0
0 0 0 0 0 0 0 0 0 0 0 0 0 0 0 0 0 0 0 0 0 0 0 0 0 0 0 0 0 0 0 0 0 0 0 0 0 -0 0 0 0 0 0 0 0
0 0 0 0 0 0 0 0 0 0 0 0 0 0 0 0 0 0 0 0 0 0 0 0 0 0 0 0 0 0 0 0 0 0 0 0 0 0 0 0 0 0 0 0 0
0 0 0 0 0 0 0 0 0 0 0 0 0 0 0 0 0 0 0 0 0 0 0 0 0 0 0 0 0 0 0 0 0 0 0 0 0 0 0 0 -0 0 0 0 0
0 0 0 0 0 0 0 0 0 0 0 0 0 0 0 0 0 0 0 0 0 0 0 0 0 0 0 0 0 0 0 0 0 0 0 0 0 0 0 0 0 0 0 0 0
0 0 0 0 0 0 0 0 0 0 0 0 0 -0 0 0 0 0 0 0 0 0 0 0 0 0 0 0 0 0 0 0 0 0 0 0 0 0 0 0 0 0 0 0 0
0 0 0 0 0 0 0 0 0 0 0 0 0 0 0 0 0 0 0 0 0 0 0 0 0 0 0 0 0 0 0 0 0 0 0 0 0 0 0 0 0 0 0 0 0
0 0 0 0 0 0 0 0 0 0 0 -0 -0 0 0 0 0 0 0 0 0 0 0 0 0 0 0 0 0 0 0 0 0 0 0 0 0 0 0 0 0 0 0 0 0
0 0 0 0 0 0 0 0 0 0 0 -0 -0 -0 0 0 0 0 0 0 0 0 0 0 0 0 0 0 0 0 0 0 0 0 0 0 0 0 0 0 0 0 0 0 0
0 0 0 0 0 0 0 0 0 0 0 -0 -0 -0 -0 0 0 0 0 0 0 0 0 0 0 0 0 0 0 0 0 0 0 0 0 0 0 0 0 0 0 0 0 0 0
0 0 0 0 0 0 0 0 0 0 -0 -0 -0 -0 -0 0 0 0 0 0 0 0 0 0 0 0 0 0 0 0 0 0 0 0 0 0 0 0 0 0 0 0 0 -0 0
0 0 0 0 0 0 0 0 0 0 0 0 -0 -0 -0 0 0 0 0 0 0 0 0 0 0 0 0 0 0 0 0 0 0 0 0 0 0 0 0 0 0 0 0 0 0
0 0 0 0 0 0 0 0 0 0 -0 0 -0 -0 -0 0 0 0 0 0 0 0 0 0 0 0 0 0 0 0 0 0 0 0 0 0 0 0 0 0 0 0 0 0 0
Wind_Speed_500mb
55 54 54 54 56 58 54 47 44 41 41 33 33 30 36 46 29 38 50 53 63 47 30 38 42 34 28 15 20 23 6 15 18 16 7 23 14 6 13 23 18 17 5 12 45
52 53 54 55 54 55 55 47 41 40 39 39 27 25 30 37 34 49 45 37 62 69 41 41 39 38 32 19 10 12 12 19 17 5 10 19 20 22 6 18 17 21 18 34 29
55 53 50 51 55 54 55 48 45 41 39 36 40 24 28 27 33 69 52 27 67 68 56 48 38 37 27 22 19 9 15 20 5 3 4 3 11 27 16 16 29 40 35 40 35
60 55 53 48 49 52 52 49 47 45 36 34 36 38 27 28 17 20 49 52 34 72 50 46 42 37 27 22 37 11 35 30 10 12 6 6 4 8 24 16 32 34 42 43 43
61 59 55 51 47 48 50 52 50 43 36 34 25 40 34 39 47 18 23 51 38 39 41 38 46 56 38 39 41 28 28 32 18 19 18 10 17 12 26 34 12 10 51 45 45
66 60 57 56 52 46 47 48 49 50 41 32 24 32 41 50 44 39 41 26 33 53 68 42 40 51 34 43 40 37 46 41 29 24 15 11 15 13 18 27 30 25 40 46 45
73 65 59 58 58 51 46 44 44 42 38 32 32 39 52 61 26 45 47 58 51 31 55 64 62 35 43 28 52 19 23 14 21 25 13 21 13 18 36 17 36 36 42 47 46
77 71 63 61 55 52 49 44 40 38 36 30 27 41 46 26 74 46 51 64 67 69 51 67 72 56 40 48 23 19 16 16 19 29 13 22 16 30 51 40 37 44 45 49 48
80 76 69 63 58 50 46 44 36 36 32 30 32 31 26 43 58 70 61 63 69 59 71 38 47 25 33 22 16 22 21 24 12 40 13 18 14 32 40 59 43 44 50 54 51
85 80 73 67 60 51 42 41 31 32 33 28 36 16 46 58 44 65 58 54 54 54 44 31 5 6 20 28 42 34 30 30 29 26 30 16 26 17 20 41 45 46 52 56 60
87 82 74 66 59 51 44 37 22 14 39 36 15 52 15 54 35 54 66 52 46 37 30 35 10 24 43 46 31 25 36 33 28 20 18 36 33 23 39 33 36 43 46 56 59
91 83 74 63 55 47 50 45 41 13 15 62 71 43 64 29 32 56 76 44 15 13 25 11 37 43 37 48 48 33 35 34 6 28 17 19 32 27 25 36 50 48 49 57 56
94 85 73 60 51 51 58 55 22 31 9 27 58 64 64 50 39 46 93 49 28 24 30 29 24 39 36 49 47 35 38 29 17 12 2 6 13 16 20 47 49 54 60 59 68
98 87 75 63 54 57 55 43 36 22 6 14 25 31 54 64 32 74 98 70 14 29 33 13 14 15 41 48 50 34 29 17 23 13 7 16 10 20 40 33 25 57 64 58 67
100 91 78 82 47 59 42 40 33 25 10 13 19 15 49 52 15 61 109 66 32 26 18 20 28 27 34 57 45 22 18 17 11 6 8 14 4 11 18 33 37 46 59 66 65
104 93 81 81 45 41 38 53 41 11 22 7 5 14 25 39 41 42 83 68 39 23 16 10 13 2 19 25 36 26 27 22 8 5 9 17 15 9 9 17 36 39 63 74 72
107 94 85 84 58 52 59 59 13 21 4 13 12 6 38 29 47 37 35 30 22 23 13 5 9 4 9 11 8 21 37 8 6 7 12 1 17 18 12 9 13 18 51 77 75
110 93 85 81 70 59 72 13 21 21 38 5 7 8 18 19 39 48 47 27 24 32 18 19 7 21 11 20 19 32 18 13 15 11 8 6 13 11 24 36 34 41 18 14 39
104 87 84 73 71 75 45 15 16 10 15 45 12 11 10 20 12 46 42 47 24 34 27 23 14 19 17 33 22 15 12 9 14 2 7 10 11 16 19 12 15 16 19 28 29
103 88 81 70 68 72 23 30 16 19 5 11 29 26 21 21 20 21 49 42 34 41 24 21 15 21 15 32 36 23 15 6 1 9 6 5 7 10 6 8 16 13 24 28 31
87 41 71 78 75 45 20 18 31 27 12 10 10 19 18 17 18 18 44 29 44 55 39 29 11 12 22 19 39 13 15 6 9 7 8 6 11 7 10 7 8 6 2 11 17
64 10 81 82 16 14 25 19 22 24 27 17 8 18 30 30 16 27 38 32 68 53 37 9 10 24 45 11 6 21 19 16 10 10 2 5 8 4 14 10 6 4 5 7 12
44 27 76 89 16 19 15 32 28 22 28 15 16 19 22 26 20 40 48 33 75 52 32 22 10 14 13 6 1 20 19 40 12 8 15 11 9 6 10 5 6 8 7 13 12
35 11 28 58 33 26 29 27 42 43 28 22 15 24 22 26 37 44 40 31 76 54 29 17 9 23 29 60 14 24 34 31 18 7 12 17 11 8 10 13 12 17 17 17 16
16 8 18 23 26 24 38 29 37 29 39 35 19 34 21 14 36 30 27 12 41 47 11 11 9 8 6 27 20 29 32 22 39 27 19 17 11 14 15 16 23 26 19 18 22
18 13 14 13 34 35 31 43 42 41 23 28 35 26 20 26 25 49 24 29 46 24 27 11 10 10 9 2 19 29 35 39 38 42 33 18 23 14 17 20 23 21 10 13 19
19 29 27 18 21 25 39 44 51 40 43 50 38 23 27 35 49 38 46 42 48 52 46 24 14 9 2 5 18 6 52 53 45 38 45 29 14 13 14 17 28 23 18 11 10
Wind_Direction_500mb
236 240 243 238 235 236 242 246 246 251 243 248 251 261 266 248 268 253 234 241 233 227 218 226 242 234 209 210 216 228 273 242 245 259 92 138 174 207 177 138 150 182 101 143 186
240 238 239 240 238 235 235 242 245 247 247 240 246 255 265 242 260 264 247 239 227 211 219 225 234 219 203 200 235 193 231 243 252 285 359 156 205 164 159 165 168 152 126 171 182
242 238 240 238 236 236 234 238 243 248 248 246 239 248 256 242 253 256 242 238 223 206 210 217 219 224 199 179 185 222 229 242 90 51 84 105 222 163 199 207 191 181 163 182 188
245 234 236 237 236 236 237 234 244 248 251 248 244 234 248 233 223 258 246 230 229 214 203 225 239 256 246 194 199 201 233 251 277 180 178 204 222 188 209 225 209 203 201 197 197
242 240 235 233 237 236 237 234 236 248 243 243 257 229 232 227 233 235 228 215 226 223 216 242 249 240 226 202 192 220 214 221 218 182 213 219 217 198 223 226 227 204 186 200 205
241 240 236 227 233 234 235 235 234 238 243 243 233 234 228 239 260 233 228 213 212 226 237 242 236 237 243 235 207 196 227 227 186 186 203 197 231 181 238 215 228 187 195 202 209
237 236 236 232 232 234 234 235 235 235 243 242 247 230 231 234 255 239 233 236 235 213 211 231 247 292 266 259 227 172 209 195 183 199 216 199 259 219 225 217 221 202 199 201 211
234 233 234 235 235 234 233 232 236 235 235 239 234 227 243 245 241 245 235 236 233 240 232 242 251 286 262 256 170 178 235 188 193 192 202 166 244 225 234 219 222 205 204 205 209
233 230 232 235 234 234 231 229 236 232 231 227 224 227 248 239 232 230 232 224 224 218 223 255 257 270 270 226 171 200 192 201 193 187 143 187 241 232 248 206 209 214 206 207 206
231 228 230 232 235 233 229 222 229 226 221 224 229 226 239 224 217 222 213 211 198 205 204 227 323 315 225 204 198 183 194 189 200 185 198 189 248 266 264 188 204 218 213 209 204
227 227 228 230 233 226 213 199 201 228 211 204 203 222 345 213 203 209 202 187 166 170 191 185 219 249 232 220 219 182 184 186 210 179 164 219 233 222 235 205 221 223 219 209 212
225 224 224 226 218 211 205 195 201 171 215 236 234 248 239 242 227 212 188 180 177 147 141 142 198 216 261 232 235 173 189 210 83 156 176 206 236 234 225 209 211 215 223 214 217
222 221 218 212 204 204 204 206 178 217 258 235 235 235 224 216 239 230 188 193 196 144 176 180 205 191 248 250 220 212 195 194 151 142 305 20 270 246 238 225 213 209 218 218 218
217 215 211 202 195 201 204 199 203 187 269 240 211 242 214 221 247 238 202 192 205 164 153 205 222 162 219 249 215 202 189 172 132 124 204 155 275 218 226 220 214 209 214 220 217
212 210 206 194 185 189 194 181 181 156 249 201 198 209 195 185 198 198 203 196 174 151 148 181 179 202 229 229 227 173 120 120 131 157 27 192 248 245 216 209 214 222 209 216 219
207 202 199 190 178 183 167 172 160 146 233 227 160 193 157 203 193 181 184 188 175 138 198 107 87 106 223 270 226 146 100 78 77 143 258 206 184 245 203 203 213 219 217 222 221
201 196 190 184 172 167 172 151 170 215 177 220 196 178 204 188 188 186 171 182 156 139 155 97 74 260 241 295 316 162 124 111 166 207 226 20 200 232 249 225 215 211 214 223 222
195 187 185 185 179 151 161 161 210 202 223 122 145 210 218 159 194 194 172 172 171 174 146 152 174 173 195 213 184 200 139 140 171 187 187 348 230 239 226 252 269 255 232 225 195
185 172 171 176 174 181 160 200 207 170 249 218 155 200 227 197 203 181 197 175 167 166 158 169 177 151 174 223 191 220 201 100 106 351 82 203 257 302 263 231 223 217 210 232 229
165 164 170 170 170 167 170 213 221 197 135 234 215 194 202 198 200 196 188 182 170 185 169 159 108 164 161 223 243 221 149 106 348 134 189 238 260 229 56 202 196 213 217 233 243
153 148 169 172 165 166 190 213 221 216 164 232 220 227 214 186 220 192 187 184 175 184 194 125 102 141 139 225 188 188 191 174 130 157 158 159 255 184 119 113 132 104 158 227 223
152 133 170 171 160 189 212 203 226 221 222 212 229 276 213 174 238 174 195 189 199 177 178 125 110 154 195 184 315 211 193 155 151 218 89 138 273 132 130 124 139 141 128 161 182
130 104 170 169 176 190 204 210 227 210 215 192 230 208 231 191 207 207 202 209 194 189 154 163 156 119 123 343 351 218 201 194 104 122 193 136 248 134 162 196 179 140 115 138 142
125 136 157 191 205 186 189 208 216 232 239 212 256 242 275 201 221 207 201 201 180 186 133 98 149 180 189 200 118 187 199 197 200 149 157 196 148 180 219 152 153 124 123 130 131
119 135 167 178 208 202 193 200 204 221 205 211 239 228 213 259 207 204 184 163 184 166 103 104 119 121 359 169 174 180 187 184 207 202 193 152 214 200 190 166 155 129 113 127 133
125 147 158 151 183 203 213 221 209 210 169 212 234 221 209 250 239 178 166 160 181 180 158 171 160 118 26 55 154 174 182 192 218 210 223 152 197 276 181 168 169 173 127 130 142
129 130 140 158 187 186 212 222 216 215 216 223 211 210 238 241 242 219 187 168 179 176 179 151 129 121 108 74 88 348 196 194 209 205 206 203 171 178 209 189 190 187 195 200 174
Wind_Speed_850mb
55 54 54 54 56 58 54 47 44 41 41 33 33 30 36 46 29 38 50 53 63 47 30 38 42 34 28 15 20 23 6 15 18 16 7 23 14 6 13 23 18 17 5 12 45
52 53 54 55 54 55 55 47 41 40 39 39 27 25 30 37 34 49 45 37 62 69 41 41 39 38 32 19 10 12 12 19 17 5 10 19 20 22 6 18 17 21 18 34 29
55 53 50 51 55 54 55 48 45 41 39 36 40 24 28 27 33 69 52 27 67 68 56 48 38 37 27 22 19 9 15 20 5 3 4 3 11 27 16 16 29 40 35 40 35
60 55 53 48 49 52 52 49 47 45 36 34 36 38 27 28 17 20 49 52 34 72 50 46 42 37 27 22 37 11 35 30 10 12 6 6 4 8 24 16 32 34 42 43 43
61 59 55 51 47 48 50 52 50 43 36 34 25 40 34 39 47 18 23 51 38 39 41 38 46 56 38 39 41 28 28 32 18 19 18 10 17 12 26 34 12 10 51 45 45
66 60 57 56 52 46 47 48 49 50 41 32 24 32 41 50 44 39 41 26 33 53 68 42 40 51 34 43 40 37 46 41 29 24 15 11 15 13 18 27 30 25 40 46 45
73 65 59 58 58 51 46 44 44 42 38 32 32 39 52 61 26 45 47 58 51 31 55 64 62 35 43 28 52 19 23 14 21 25 13 21 13 18 36 17 36 36 42 47 46
77 71 63 61 55 52 49 44 40 38 36 30 27 41 46 26 74 46 51 64 67 69 51 67 72 56 40 48 23 19 16 16 19 29 13 22 16 30 51 40 37 44 45 49 48
80 76 69 63 58 50 46 44 36 36 32 30 32 31 26 43 58 70 61 63 69 59 71 38 47 25 33 22 16 22 21 24 12 40 13 18 14 32 40 59 43 44 50 54 51
85 80 73 67 60 51 42 41 31 32 33 28 36 16 46 58 44 65 58 54 54 54 44 31 5 6 20 28 42 34 30 30 29 26 30 16 26 17 20 41 45 46 52 56 60
87 82 74 66 59 51 44 37 22 14 39 36 15 52 15 54 35 54 66 52 46 37 30 35 10 24 43 46 31 25 36 33 28 20 18 36 33 23 39 33 36 43 46 56 59
91 83 74 63 55 47 50 45 41 13 15 62 71 43 64 29 32 56 76 44 15 13 25 11 37 43 37 48 48 33 35 34 6 28 17 19 32 27 25 36 50 48 49 57 56
94 85 73 60 51 51 58 55 22 31 9 27 58 64 64 50 39 46 93 49 28 24 30 29 24 39 36 49 47 35 38 29 17 12 2 6 13 16 20 47 49 54 60 59 68
98 87 75 63 54 57 55 43 36 22 6 14 25 31 54 64 32 74 98 70 14 29 33 13 14 15 41 48 50 34 29 17 23 13 7 16 10 20 40 33 25 57 64 58 67
100 91 78 82 47 59 42 40 33 25 10 13 19 15 49 52 15 61 109 66 32 26 18 20 28 27 34 57 45 22 18 17 11 6 8 14 4 11 18 33 37 46 59 66 65
104 93 81 81 45 41 38 53 41 11 22 7 5 14 25 39 41 42 83 68 39 23 16 10 13 2 19 25 36 26 27 22 8 5 9 17 15 9 9 17 36 39 63 74 72
107 94 85 84 58 52 59 59 13 21 4 13 12 6 38 29 47 37 35 30 22 23 13 5 9 4 9 11 8 21 37 8 6 7 12 1 17 18 12 9 13 18 51 77 75
110 93 85 81 70 59 72 13 21 21 38 5 7 8 18 19 39 48 47 27 24 32 18 19 7 21 11 20 19 32 18 13 15 11 8 6 13 11 24 36 34 41 18 14 39
104 87 84 73 71 75 45 15 16 10 15 45 12 11 10 20 12 46 42 47 24 34 27 23 14 19 17 33 22 15 12 9 14 2 7 10 11 16 19 12 15 16 19 28 29
103 88 81 70 68 72 23 30 16 19 5 11 29 26 21 21 20 21 49 42 34 41 24 21 15 21 15 32 36 23 15 6 1 9 6 5 7 10 6 8 16 13 24 28 31
87 41 71 78 75 45 20 18 31 27 12 10 10 19 18 17 18 18 44 29 44 55 39 29 11 12 22 19 39 13 15 6 9 7 8 6 11 7 10 7 8 6 2 11 17
64 10 81 82 16 14 25 19 22 24 27 17 8 18 30 30 16 27 38 32 68 53 37 9 10 24 45 11 6 21 19 16 10 10 2 5 8 4 14 10 6 4 5 7 12
44 27 76 89 16 19 15 32 28 22 28 15 16 19 22 26 20 40 48 33 75 52 32 22 10 14 13 6 1 20 19 40 12 8 15 11 9 6 10 5 6 8 7 13 12
35 11 28 58 33 26 29 27 42 43 28 22 15 24 22 26 37 44 40 31 76 54 29 17 9 23 29 60 14 24 34 31 18 7 12 17 11 8 10 13 12 17 17 17 16
16 8 18 23 26 24 38 29 37 29 39 35 19 34 21 14 36 30 27 12 41 47 11 11 9 8 6 27 20 29 32 22 39 27 19 17 11 14 15 16 23 26 19 18 22
18 13 14 13 34 35 31 43 42 41 23 28 35 26 20 26 25 49 24 29 46 24 27 11 10 10 9 2 19 29 35 39 38 42 33 18 23 14 17 20 23 21 10 13 19
19 29 27 18 21 25 39 44 51 40 43 50 38 23 27 35 49 38 46 42 48 52 46 24 14 9 2 5 18 6 52 53 45 38 45 29 14 13 14 17 28 23 18 11 10
Wind_Direction_850mb
236 240 243 238 235 236 242 246 246 251 243 248 251 261 266 248 268 253 234 241 233 227 218 226 242 234 209 210 216 228 273 242 245 259 92 138 174 207 177 138 150 182 101 143 186
240 238 239 240 238 235 235 242 245 247 247 240 246 255 265 242 260 264 247 239 227 211 219 225 234 219 203 200 235 193 231 243 252 285 359 156 205 164 159 165 168 152 126 171 182
242 238 240 238 236 236 234 238 243 248 248 246 239 248 256 242 253 256 242 238 223 206 210 217 219 224 199 179 185 222 229 242 90 51 84 105 222 163 199 207 191 181 163 182 188
245 234 236 237 236 236 237 234 244 248 251 248 244 234 248 233 223 258 246 230 229 214 203 225 239 256 246 194 199 201 233 251 277 180 178 204 222 188 209 225 209 203 201 197 197
242 240 235 233 237 236 237 234 236 248 243 243 257 229 232 227 233 235 228 215 226 223 216 242 249 240 226 202 192 220 214 221 218 182 213 219 217 198 223 226 227 204 186 200 205
241 240 236 227 233 234 235 235 234 238 243 243 233 234 228 239 260 233 228 213 212 226 237 242 236 237 243 235 207 196 227 227 186 186 203 197 231 181 238 215 228 187 195 202 209
237 236 236 232 232 234 234 235 235 235 243 242 247 230 231 234 255 239 233 236 235 213 211 231 247 292 266 259 227 172 209 195 183 199 216 199 259 219 225 217 221 202 199 201 211
234 233 234 235 235 234 233 232 236 235 235 239 234 227 243 245 241 245 235 236 233 240 232 242 251 286 262 256 170 178 235 188 193 192 202 166 244 225 234 219 222 205 204 205 209
233 230 232 235 234 234 231 229 236 232 231 227 224 227 248 239 232 230 232 224 224 218 223 255 257 270 270 226 171 200 192 201 193 187 143 187 241 232 248 206 209 214 206 207 206
231 228 230 232 235 233 229 222 229 226 221 224 229 226 239 224 217 222 213 211 198 205 204 227 323 315 225 204 198 183 194 189 200 185 198 189 248 266 264 188 204 218 213 209 204
227 227 228 230 233 226 213 199 201 228 211 204 203 222 345 213 203 209 202 187 166 170 191 185 219 249 232 220 219 182 184 186 210 179 164 219 233 222 235 205 221 223 219 209 212
225 224 224 226 218 211 205 195 201 171 215 236 234 248 239 242 227 212 188 180 177 147 141 142 198 216 261 232 235 173 189 210 83 156 176 206 236 234 225 209 211 215 223 214 217
222 221 218 212 204 204 204 206 178 217 258 235 235 235 224 216 239 230 188 193 196 144 176 180 205 191 248 250 220 212 195 194 151 142 305 20 270 246 238 225 213 209 218 218 218
217 215 211 202 195 201 204 199 203 187 269 240 211 242 214 221 247 238 202 192 205 164 153 205 222 162 219 249 215 202 189 172 132 124 204 155 275 218 226 220 214 209 214 220 217
212 210 206 194 185 189 194 181 181 156 249 201 198 209 195 185 198 198 203 196 174 151 148 181 179 202 229 229 227 173 120 120 131 157 27 192 248 245 216 209 214 222 209 216 219
207 202 199 190 178 183 167 172 160 146 233 227 160 193 157 203 193 181 184 188 175 138 198 107 87 106 223 270 226 146 100 78 77 143 258 206 184 245 203 203 213 219 217 222 221
201 196 190 184 172 167 172 151 170 215 177 220 196 178 204 188 188 186 171 182 156 139 155 97 74 260 241 295 316 162 124 111 166 207 226 20 200 232 249 225 215 211 214 223 222
195 187 185 185 179 151 161 161 210 202 223 122 145 210 218 159 194 194 172 172 171 174 146 152 174 173 195 213 184 200 139 140 171 187 187 348 230 239 226 252 269 255 232 225 195
185 172 171 176 174 181 160 200 207 170 249 218 155 200 227 197 203 181 197 175 167 166 158 169 177 151 174 223 191 220 201 100 106 351 82 203 257 302 263 231 223 217 210 232 229
165 164 170 170 170 167 170 213 221 197 135 234 215 194 202 198 200 196 188 182 170 185 169 159 108 164 161 223 243 221 149 106 348 134 189 238 260 229 56 202 196 213 217 233 243
153 148 169 172 165 166 190 213 221 216 164 232 220 227 214 186 220 192 187 184 175 184 194 125 102 141 139 225 188 188 191 174 130 157 158 159 255 184 119 113 132 104 158 227 223
152 133 170 171 160 189 212 203 226 221 222 212 229 276 213 174 238 174 195 189 199 177 178 125 110 154 195 184 315 211 193 155 151 218 89 138 273 132 130 124 139 141 128 161 182
130 104 170 169 176 190 204 210 227 210 215 192 230 208 231 191 207 207 202 209 194 189 154 163 156 119 123 343 351 218 201 194 104 122 193 136 248 134 162 196 179 140 115 138 142
125 136 157 191 205 186 189 208 216 232 239 212 256 242 275 201 221 207 201 201 180 186 133 98 149 180 189 200 118 187 199 197 200 149 157 196 148 180 219 152 153 124 123 130 131
119 135 167 178 208 202 193 200 204 221 205 211 239 228 213 259 207 204 184 163 184 166 103 104 119 121 359 169 174 180 187 184 207 202 193 152 214 200 190 166 155 129 113 127 133
125 147 158 151 183 203 213 221 209 210 169 212 234 221 209 250 239 178 166 160 181 180 158 171 160 118 26 55 154 174 182 192 218 210 223 152 197 276 181 168 169 173 127 130 142
129 130 140 158 187 186 212 222 216 215 216 223 211 210 238 241 242 219 187 168 179 176 179 151 129 121 108 74 88 348 196 194 209 205 206 203 171 178 209 189 190 187 195 200 174